{"data":{"norad_id":68745,"epoch":"2026-09-20T01:33:30.153312Z","epoch_age_seconds":78908,"freshness":"FRESH","line1":"1 68745U 26082T   26263.06493233  .00014180  00000+0  44072-3 0  9990","line2":"2 68745  97.2867 125.2936 0002451  86.0058 274.1465 15.33443951 24247","mean_motion":15.33443951,"eccentricity":0.0002451,"inclination_deg":97.2867,"raan_deg":125.2936,"arg_perigee_deg":86.0058,"mean_anomaly_deg":274.1465,"bstar":0.00044072,"rev_number":2424,"period_min":93.906268896293,"perigee_km":463.86890879013,"apogee_km":467.22368234162,"semimajor_km":6843.6832955659,"source":"CELESTRAK","updated_at":"2026-09-20T09:00:43.994587Z"}}